Location: Newark
(49.3000°N, 9.4667°E)
Time: 17:14:44
(UTC+00:00)

Transit 2A Rocket - Pass Details

Date: 25 May 2019
Orbit: 586 x 917 km, 66.7° (Epoch: 16 June)

Event Time Altitude Azimuth Distance (km) Brightness Sun altitude
Rises 00:19:32 0° 324° (NW) 3,472 9.0 -18.6°
Reaches altitude 10° 00:22:10 10° 328° (NNW) 2,491 8.2 -18.4°
Maximum altitude 00:27:51 59° 48° (NE) 923 5.6 -18.2°
Drops below altitude 10° 00:33:00 10° 128° (SE) 2,263 7.2 -17.9°
Enters shadow 00:34:59 - 132° (SE) 3,010 7.8 -17.8°
